Wind_Speed
4 5 6 6 6 5 5 5 5 5 6 6 6 6 6 6 6 7 7 7 7 7 6 6 6 6 6 6 6 6 5 5 5 5 5 5 5 5 5 5 5 5 5
3 4 5 6 6 5 5 4 5 5 5 5 5 5 6 6 6 6 6 7 6 6 6 6 5 6 5 5 5 5 5 5 5 5 5 5 5 5 5 5 5 5 5
2 3 4 5 5 5 5 4 4 4 4 5 5 5 5 5 5 5 5 5 5 5 5 5 5 5 5 5 4 4 4 4 4 4 4 4 4 4 4 4 4 4 5
2 3 4 4 5 5 5 5 4 4 4 5 5 5 5 5 5 5 5 5 4 4 5 5 5 5 5 4 4 4 4 4 4 4 4 4 4 4 4 4 4 5 5
2 3 3 4 4 5 5 5 5 5 4 5 4 5 4 4 4 4 4 4 4 4 4 4 4 4 4 4 3 3 4 4 4 4 3 3 3 3 3 4 4 4 4
1 2 3 3 4 4 5 5 5 5 5 5 5 5 4 4 4 3 3 3 3 4 4 4 4 4 4 4 3 4 4 4 4 3 3 3 3 3 3 3 3 4 4
1 1 2 3 4 4 5 5 5 5 5 5 5 5 5 4 4 3 3 3 3 3 4 3 4 4 4 3 3 4 4 4 4 3 3 3 3 3 3 3 3 3 3
1 1 1 2 4 5 5 5 6 6 6 6 6 5 5 4 4 3 2 2 2 2 2 3 3 3 4 3 3 3 3 4 3 2 2 2 3 3 3 3 3 2 2
1 1 1 2 3 4 5 6 6 6 6 6 5 5 5 4 4 3 2 2 2 2 2 3 3 3 3 3 3 3 3 3 3 3 2 2 3 3 3 2 2 2 2
2 1 2 2 3 4 5 6 6 6 6 6 5 5 5 4 4 3 2 2 1 2 1 2 2 2 2 3 3 2 2 2 2 2 2 2 2 2 2 1 1 1 1
2 2 2 2 3 4 5 7 7 7 7 7 6 5 5 5 4 3 3 2 1 1 1 2 2 2 2 2 2 2 3 3 3 2 2 2 1 1 1 1 1 1 1
3 3 3 4 4 4 5 7 8 8 8 8 7 7 6 5 5 4 3 2 1 1 1 1 2 2 2 2 2 2 3 3 2 2 2 1 1 0 0 0 1 1 1
5 5 5 5 5 5 6 7 8 9 9 9 8 7 7 6 5 4 4 3 2 1 0 1 2 2 2 2 2 2 2 2 2 2 2 1 1 1 0 1 1 2 2
6 6 6 6 6 6 6 7 8 9 9 9 8 8 7 6 6 5 4 3 3 2 1 1 1 1 1 1 1 1 1 2 2 2 2 2 2 1 0 1 1 2 2
8 7 7 7 7 7 8 8 8 9 10 10 9 9 8 7 7 6 5 4 3 2 2 2 1 1 1 1 1 1 1 1 2 2 2 2 2 1 0 0 1 1 2
10 9 9 8 8 9 10 10 9 10 10 10 10 10 9 9 8 6 5 5 4 3 3 2 2 1 1 1 1 1 1 2 2 2 2 2 2 2 1 0 1 1 1
11 10 10 9 10 10 10 10 9 10 10 11 11 11 10 9 9 8 7 6 5 4 4 3 3 2 2 2 1 1 1 1 1 2 2 2 2 2 1 1 1 1 1
12 11 10 10 11 11 11 11 10 10 11 11 10 10 11 10 10 9 8 7 6 5 5 4 3 3 3 2 2 2 2 1 1 1 2 3 3 3 2 2 2 1 1
12 12 11 11 12 12 12 11 10 10 11 11 11 11 11 11 10 9 10 9 7 7 6 6 5 4 3 3 2 2 2 1 1 1 2 2 3 3 3 3 3 2 2
13 12 12 12 12 12 11 10 10 10 10 10 11 11 11 11 10 10 10 10 9 8 8 7 6 5 5 4 3 3 3 2 1 0 1 1 2 2 2 2 2 2 2
13 13 13 13 12 12 11 10 10 10 11 10 11 11 11 11 11 11 11 11 10 10 9 8 8 7 6 5 4 4 4 3 3 2 1 0 1 2 2 2 2 2 2
14 14 14 13 12 11 10 10 9 9 10 10 10 11 11 11 12 12 11 12 11 10 10 10 9 8 8 7 6 5 5 4 4 3 2 1 1 1 1 1 2 2 1
13 13 13 13 12 11 10 10 9 9 9 9 10 12 12 12 12 12 12 12 12 11 11 11 10 10 10 9 8 7 6 5 5 5 4 3 2 2 2 2 2 2 2
12 12 12 13 12 12 11 10 9 9 10 10 11 13 13 13 13 13 13 12 13 12 12 12 12 12 11 11 10 9 8 8 7 6 5 5 4 4 4 4 4 4 3
12 12 12 12 12 11 11 10 9 9 9 10 11 13 14 14 14 14 14 14 13 13 13 13 13 13 12 12 12 11 10 9 8 8 7 7 7 7 7 7 6 6 6
12 12 12 12 12 11 11 11 10 10 10 11 12 13 14 14 15 15 15 15 14 14 15 14 14 14 14 13 13 12 12 11 10 9 9 8 8 9 9 9 9 8 8
Wind_Direction
146 144 153 153 151 152 154 153 152 148 147 145 140 137 132 129 124 119 113 110 107 106 102 99 95 92 90 87 88 89 87 85 82 78 77 76 74 75 75 78 77 82 88
171 167 168 167 164 161 159 163 167 162 159 156 151 141 137 133 127 123 118 114 111 110 105 99 96 94 93 90 88 88 87 86 83 80 79 78 76 75 76 76 77 82 82
190 187 187 186 180 173 173 180 184 179 171 164 155 148 148 140 133 127 121 117 115 114 109 103 99 97 95 90 88 87 86 84 85 85 82 77 75 76 77 78 81 85 86
207 198 196 196 194 193 189 194 195 193 190 179 164 157 157 150 141 134 127 121 118 114 110 106 103 99 97 93 89 86 86 85 87 89 85 79 78 77 78 82 89 88 89
211 207 201 208 208 202 201 204 207 201 195 191 181 173 167 156 145 137 130 123 119 114 111 108 105 99 95 90 84 80 80 82 85 89 88 83 82 80 76 83 85 87 89
201 195 209 219 216 220 213 214 214 209 207 206 200 189 180 168 154 147 138 125 120 114 111 108 105 100 91 84 83 81 80 81 83 89 88 84 81 78 79 89 87 86 86
184 184 209 227 238 233 221 224 224 225 223 221 214 204 192 179 167 155 141 125 121 112 111 110 108 101 92 88 89 84 79 77 80 86 88 86 81 82 86 88 88 88 88
241 230 217 241 250 234 228 230 235 238 236 233 224 219 203 192 183 174 153 125 114 109 106 109 110 106 102 96 94 92 82 75 80 83 86 84 93 92 92 90 88 92 95
283 270 260 248 245 234 238 243 242 236 236 235 231 222 213 205 196 186 171 139 116 105 105 108 113 113 106 96 98 101 91 79 76 73 79 84 89 91 91 89 91 107 107
290 290 269 257 255 249 249 249 242 238 237 237 234 233 227 218 209 200 188 169 124 100 103 115 124 124 105 97 105 105 88 83 76 68 76 81 83 83 90 100 97 117 143
314 301 284 269 266 259 255 252 245 240 239 241 239 241 234 231 225 220 211 191 143 101 89 116 124 131 111 101 103 105 98 92 78 68 64 71 76 84 85 136 159 155 176
327 311 298 285 277 271 262 255 249 241 239 241 242 242 237 239 238 232 219 205 174 131 92 105 117 120 110 107 104 106 105 106 85 66 60 61 66 80 184 196 210 201 192
331 321 311 301 282 269 265 262 259 250 245 245 249 245 244 244 250 242 230 217 213 199 149 131 133 129 119 121 111 105 103 99 81 54 58 50 58 73 155 214 216 216 212
336 329 315 300 290 279 278 270 262 256 251 251 250 245 248 248 249 243 239 233 228 225 222 199 170 162 146 127 105 98 102 95 88 52 48 45 45 52 145 199 216 225 233
335 328 324 312 293 287 283 278 266 257 254 251 246 246 247 250 250 244 246 246 233 237 248 245 220 191 169 155 123 105 113 90 77 64 55 36 33 30 359 218 218 220 240
338 331 323 311 301 292 286 280 271 261 255 247 243 247 249 249 248 243 244 251 248 247 250 245 239 210 187 174 141 130 131 105 80 70 58 46 34 29 26 333 233 209 214
334 328 321 313 311 302 293 285 271 262 251 247 243 247 246 244 243 244 246 245 250 254 251 246 238 219 206 191 174 174 159 126 98 75 57 49 40 29 36 64 105 176 223
330 327 320 312 311 304 297 287 273 264 252 247 244 246 243 241 243 244 243 243 246 250 250 246 240 227 219 210 207 198 183 159 117 82 64 53 51 52 61 65 72 91 97
327 328 322 315 311 305 299 289 277 268 256 246 243 241 239 239 242 242 243 244 247 251 249 245 239 234 227 218 214 205 198 186 147 97 70 60 55 58 58 63 62 69 75
320 323 321 314 312 309 301 294 277 269 260 245 237 233 233 238 241 241 246 248 250 250 250 246 241 238 232 229 233 223 219 215 209 176 85 50 45 49 45 46 44 46 54
312 314 316 313 312 312 303 296 286 269 255 243 234 227 229 238 241 244 246 247 247 249 249 247 243 241 237 237 238 237 236 227 223 223 220 312 16 31 37 48 45 34 37
308 308 310 309 308 305 303 297 287 275 258 249 237 230 231 238 242 248 248 244 244 245 247 246 244 243 241 243 242 239 236 233 232 228 229 260 324 351 20 27 17 4 358
308 306 308 307 306 304 302 298 285 270 257 250 243 240 238 239 239 243 247 244 245 245 246 247 248 246 241 241 241 239 239 239 241 244 245 253 270 281 289 306 314 322 324
306 308 309 304 302 299 296 291 286 275 263 255 247 240 238 237 239 243 244 244 246 244 246 247 248 247 246 243 242 243 246 246 246 250 249 251 258 266 272 281 290 297 297
303 305 307 303 302 300 294 290 284 280 269 258 252 247 241 240 240 242 244 244 244 244 245 247 247 248 248 247 246 248 249 249 252 253 251 255 260 262 267 272 278 286 289
302 303 304 301 299 298 294 290 288 279 271 265 257 251 245 243 241 243 242 242 242 244 245 246 246 246 246 248 249 248 249 250 255 255 256 261 264 264 266 269 274 279 282
Height
5884 5884 5885 5886 5886 5887 5888 5888 5889 5889 5889 5889 5889 5889 5889 5889 5889 5889 5889 5889 5889 5889 5889 5889 5889 5889 5889 5890 5890 5890 5890 5890 5891 5891 5891 5891 5891 5892 5892 5892 5892 5892 5892
5884 5885 5886 5886 5887 5888 5889 5889 5890 5890 5890 5890 5890 5890 5890 5890 5890 5890 5890 5890 5890 5890 5890 5890 5890 5890 5890 5890 5891 5891 5891 5891 5891 5892 5892 5892 5892 5893 5893 5893 5893 5893 5894
5884 5885 5886 5887 5888 5888 5889 5890 5890 5891 5891 5891 5891 5890 5891 5890 5890 5891 5891 5891 5891 5891 5891 5891 5891 5891 5891 5891 5892 5892 5892 5892 5892 5893 5893 5893 5893 5893 5894 5894 5894 5894 5895
5885 5885 5886 5887 5888 5889 5890 5890 5891 5891 5891 5891 5891 5891 5891 5891 5891 5892 5892 5892 5892 5892 5892 5892 5892 5892 5892 5892 5893 5893 5893 5893 5893 5893 5894 5894 5894 5894 5895 5895 5895 5895 5896
5885 5885 5886 5887 5888 5889 5890 5891 5891 5891 5892 5892 5892 5892 5892 5892 5892 5892 5893 5893 5893 5893 5893 5893 5893 5893 5893 5893 5893 5894 5894 5894 5894 5894 5895 5895 5895 5895 5895 5896 5896 5897 5897
5885 5886 5886 5887 5888 5889 5890 5891 5891 5892 5892 5892 5892 5893 5893 5893 5893 5893 5893 5894 5894 5893 5893 5894 5894 5894 5894 5894 5894 5894 5894 5894 5895 5895 5895 5895 5896 5896 5896 5897 5897 5898 5898
5885 5886 5887 5887 5888 5889 5890 5891 5891 5892 5892 5893 5893 5893 5893 5893 5894 5894 5894 5894 5894 5894 5894 5894 5895 5895 5895 5895 5895 5895 5895 5895 5895 5896 5896 5896 5896 5897 5897 5898 5898 5899 5899
5886 5886 5887 5887 5888 5889 5889 5891 5891 5892 5893 5893 5893 5893 5893 5894 5894 5894 5895 5895 5895 5895 5895 5895 5895 5895 5895 5895 5895 5896 5896 5896 5896 5896 5896 5897 5897 5897 5898 5898 5899 5900 5900
5886 5887 5887 5887 5888 5889 5889 5890 5891 5892 5892 5893 5893 5893 5894 5894 5895 5895 5895 5895 5896 5896 5896 5896 5896 5896 5896 5896 5896 5896 5896 5897 5897 5897 5897 5897 5898 5898 5899 5899 5900 5900 5901
5887 5887 5887 5887 5888 5889 5889 5890 5891 5891 5892 5893 5893 5893 5894 5894 5895 5895 5895 5896 5896 5896 5896 5896 5896 5896 5896 5896 5896 5897 5897 5897 5897 5898 5897 5898 5898 5899 5899 5900 5900 5901 5901
5887 5887 5887 5887 5888 5888 5889 5889 5890 5891 5892 5892 5893 5893 5894 5894 5895 5895 5896 5896 5896 5896 5896 5896 5897 5897 5897 5897 5897 5897 5897 5897 5897 5898 5898 5898 5899 5899 5899 5900 5900 5901 5902
5887 5887 5887 5887 5888 5888 5889 5889 5889 5890 5891 5892 5893 5893 5894 5894 5895 5895 5896 5896 5897 5897 5897 5897 5897 5897 5897 5897 5897 5898 5898 5898 5898 5898 5898 5898 5899 5899 5899 5900 5900 5901 5902
5887 5887 5887 5887 5887 5887 5888 5889 5889 5890 5890 5891 5892 5893 5893 5894 5894 5895 5896 5896 5897 5897 5897 5897 5897 5897 5897 5898 5898 5898 5898 5899 5899 5898 5898 5898 5899 5899 5899 5900 5900 5901 5902
5887 5886 5887 5886 5886 5886 5887 5888 5888 5889 5889 5890 5891 5892 5893 5894 5894 5895 5896 5896 5897 5897 5897 5898 5898 5898 5898 5898 5898 5898 5899 5899 5899 5898 5898 5898 5899 5899 5899 5900 5900 5901 5902
5886 5886 5886 5886 5886 5886 5886 5886 5886 5887 5888 5889 5890 5891 5892 5893 5894 5895 5895 5896 5896 5897 5897 5898 5898 5898 5899 5899 5899 5899 5899 5899 5899 5899 5899 5899 5899 5899 5899 5900 5900 5901 5901
5886 5886 5885 5885 5885 5885 5884 5884 5885 5885 5886 5887 5888 5890 5891 5892 5893 5894 5895 5895 5896 5897 5897 5898 5898 5898 5899 5899 5899 5899 5899 5899 5899 5899 5899 5899 5899 5899 5899 5899 5900 5900 5900
5886 5885 5884 5883 5883 5883 5882 5882 5882 5883 5883 5885 5886 5888 5889 5891 5892 5893 5894 5895 5896 5896 5897 5898 5898 5898 5899 5899 5899 5899 5899 5899 5900 5900 5899 5899 5899 5899 5899 5899 5899 5900 5900
5885 5884 5883 5882 5882 5881 5880 5880 5880 5881 5882 5883 5885 5886 5887 5889 5890 5892 5893 5894 5895 5896 5897 5897 5898 5898 5899 5899 5899 5899 5900 5900 5900 5900 5900 5900 5900 5900 5900 5899 5899 5900 5900
5884 5883 5881 5881 5880 5879 5878 5878 5878 5879 5880 5880 5882 5884 5886 5888 5889 5890 5892 5893 5894 5895 5896 5897 5898 5898 5899 5899 5899 5899 5900 5900 5900 5900 5900 5900 5900 5900 5900 5900 5900 5900 5900
5882 5881 5880 5879 5878 5877 5876 5876 5876 5877 5878 5878 5880 5882 5884 5886 5887 5889 5890 5892 5893 5894 5895 5896 5897 5897 5898 5899 5899 5899 5900 5900 5900 5900 5900 5900 5900 5900 5900 5900 5900 5900 5900
5880 5879 5878 5877 5876 5875 5874 5874 5874 5875 5876 5877 5878 5879 5882 5884 5885 5887 5889 5890 5891 5892 5894 5895 5896 5897 5897 5898 5898 5899 5899 5900 5900 5900 5900 5900 5900 5900 5900 5900 5900 5900 5900
5878 5877 5876 5875 5874 5873 5872 5872 5872 5873 5874 5875 5876 5878 5880 5882 5884 5885 5887 5888 5889 5890 5892 5893 5894 5895 5896 5897 5897 5898 5898 5899 5899 5900 5900 5900 5900 5900 5900 5900 5900 5900 5900
5876 5875 5874 5873 5872 5871 5871 5870 5870 5871 5872 5874 5875 5877 5878 5879 5881 5883 5884 5886 5887 5888 5890 5891 5893 5894 5895 5895 5896 5897 5897 5898 5898 5899 5899 5899 5899 5899 5900 5900 5900 5900 5899
5874 5873 5872 5871 5870 5869 5869 5869 5869 5869 5870 5872 5873 5874 5875 5877 5879 5881 5882 5884 5885 5886 5888 5889 5891 5892 5893 5893 5894 5895 5896 5896 5897 5897 5898 5898 5898 5898 5899 5899 5899 5899 5899
5872 5871 5870 5869 5868 5867 5867 5867 5867 5867 5868 5869 5870 5872 5873 5874 5876 5878 5879 5881 5883 5884 5885 5887 5888 5889 5890 5891 5892 5893 5894 5894 5895 5896 5896 5897 5897 5897 5897 5897 5898 5897 5897
5870 5869 5868 5867 5866 5866 5865 5865 5864 5865 5866 5867 5868 5869 5870 5871 5873 5875 5877 5878 5880 5881 5883 5884 5885 5887 5888 5889 5890 5891 5891 5892 5893 5893 5894 5894 5895 5895 5895 5895 5895 5895 5895